Location: Newark
(46.6000°N, 11.5667°E)
Time: 04:41:14
(UTC+00:00)

ISS - Visible Passes

Search period start: 19 January 2020 00:00
Search period end: 29 January 2020 00:00
Orbit: 415 x 421 km, 51.6° (Epoch: 19 January)

Date Brightness Start Highest point End Pass type
(mag) Time Alt. Az. Time Alt. Az. Time Alt. Az.
19 Jan -1.1 18:11:56 10° S 18:12:26 13° S 18:12:26 13° S visible
20 Jan -1.6 17:24:56 10° SSE 17:26:48 14° SE 17:26:48 14° SE visible
20 Jan -0.3 18:59:44 10° WSW 18:59:44 10° WSW 18:59:44 10° WSW visible
21 Jan -2.4 18:11:51 10° SW 18:14:00 34° SSW 18:14:00 34° SSW visible
22 Jan -2.8 17:24:07 10° SSW 17:27:11 33° SE 17:28:10 27° ESE visible
22 Jan -0.5 19:00:33 10° W 19:01:07 14° W 19:01:07 14° W visible
23 Jan -2.1 16:36:39 10° S 16:39:17 21° SE 16:41:55 10° E visible
23 Jan -3.2 18:12:24 10° WSW 18:15:12 56° W 18:15:12 56° W visible
24 Jan -3.8 17:24:21 10° WSW 17:27:43 78° SSE 17:29:14 30° ENE visible
24 Jan -0.6 19:01:32 10° W 19:02:10 14° WNW 19:02:10 14° WNW visible
25 Jan -3.3 16:36:26 10° SW 16:39:42 50° SSE 16:42:58 10° ENE visible
25 Jan -2.7 18:13:17 10° W 18:16:08 41° NW 18:16:08 41° NW visible
26 Jan -3.3 17:25:04 10° W 17:28:22 55° NNW 17:30:04 25° NE visible
26 Jan -0.6 19:02:28 10° WNW 19:03:00 13° WNW 19:03:00 13° WNW visible
27 Jan -3.7 16:36:53 10° WSW 16:40:15 76° NNW 16:43:37 10° ENE visible
27 Jan -2.4 18:14:14 10° WNW 18:16:54 32° NNW 18:16:54 32° NNW visible
28 Jan -2.8 17:25:57 10° W 17:29:07 37° N 17:30:46 22° NE visible
28 Jan -0.6 19:03:12 10° WNW 19:03:42 13° WNW 19:03:42 13° WNW visible
